Weather History for Brownsville, TX

Change the Weather History Date:

Monday, February 25, 2013

  Actual Average Record
Temperature  
Mean Temperature 68 °F 66 °F  
Max Temperature 80 °F 75 °F 90 °F (1917)
Min Temperature 55 °F 56 °F 28 °F (1894)
Degree Days  
Heating Degree Days 0 3  
Month to date heating degree days 24 98  
Since 1 July heating degree days 280 497  
Cooling Degree Days 3 3  
Month to date cooling degree days 146 70  
Year to date cooling degree days 220 129  
Growing Degree Days 18 (Base 50)    
Moisture  
Dew Point 45 °F    
Average Humidity 53    
Maximum Humidity 100    
Minimum Humidity 5    
Precipitation  
Precipitation 0.00 in 0.03 in 1.09 in (1983)
Month to date precipitation 0.01 0.97  
Year to date precipitation 1.48 2.24  
Sea Level Pressure  
Sea Level Pressure 29.68 in    
Wind  
Wind Speed 14 mph (West)    
Max Wind Speed 31 mph    
Max Gust Speed 41 mph    
Visibility 9 miles    
Events      
T = Trace of Precipitation, MM = Missing Value Source: NWS Daily Summary

Daily Weather History Graph

Daily Weather History Graph

Search for Another Location

Airport:

Trip Planner

Search our weather history database for the weather conditions in past years. The results will help you decide how hot, cold, wet, or windy it might be!

Date:

Astronomy

Feb. 25, 2013 Rise Set
Actual Time 6:56 AM CST 6:29 PM CST
Civil Twilight 6:33 AM CST 6:52 PM CST
Nautical Twilight 6:06 AM CST 7:19 PM CST
Astronomical Twilight 5:39 AM CST 7:46 PM CST
Moon 6:37 PM CST (2/25) 6:31 AM CST (2/25)
Length of Visible Light 12h 19m
Length of Day
11h 32m
Full, 100% of the Moon is Illuminated
Feb 25
Full
Feb 25
Full
Mar 4
Last Quarter
Mar 11
New
Mar 19
First Quarter

Hourly Weather History & Observations

Time (CST) Temp. Dew Point Humidity Pressure Visibility Wind Dir Wind Speed Gust Speed Precip Events Conditions
12:04 AM 71.6 °F 69.8 °F 94% 29.63 in 7.0 mi SSE 15.0 mph - N/A   Overcast
12:39 AM 71.6 °F 69.8 °F 94% 29.62 in 8.0 mi South 12.7 mph - N/A   Overcast
12:53 AM 71.1 °F 70.0 °F 96% 29.61 in 8.0 mi South 13.8 mph - N/A   Mostly Cloudy
1:53 AM 71.1 °F 70.0 °F 96% 29.59 in 8.0 mi South 13.8 mph - N/A   Mostly Cloudy
2:13 AM 71.6 °F 69.8 °F 94% 29.58 in 8.0 mi South 12.7 mph - N/A   Scattered Clouds
2:53 AM 71.1 °F 69.1 °F 93% 29.56 in 7.0 mi South 11.5 mph - N/A   Partly Cloudy
3:10 AM 71.6 °F 69.8 °F 94% 29.55 in 7.0 mi South 12.7 mph - N/A   Mostly Cloudy
3:53 AM 72.0 °F 71.1 °F 97% 29.54 in 7.0 mi South 13.8 mph - N/A   Overcast
4:53 AM 72.0 °F 71.1 °F 97% 29.55 in 8.0 mi South 11.5 mph - N/A   Overcast
5:42 AM 73.4 °F 69.8 °F 88% 29.56 in 8.0 mi SSW 9.2 mph - N/A   Overcast
5:53 AM 73.0 °F 71.1 °F 93% 29.56 in 8.0 mi SSW 11.5 mph - N/A   Overcast
6:53 AM 73.0 °F 70.0 °F 90% 29.57 in 8.0 mi South 13.8 mph - N/A   Overcast
7:53 AM 73.0 °F 69.1 °F 87% 29.60 in 7.0 mi SSW 10.4 mph - N/A   Mostly Cloudy
8:53 AM 73.9 °F 69.1 °F 85% 29.62 in 8.0 mi SW 11.5 mph - N/A   Overcast
9:27 AM 75.2 °F 68.0 °F 78% 29.65 in 8.0 mi West 11.5 mph - N/A   Mostly Cloudy
9:53 AM 77.0 °F 66.9 °F 71% 29.66 in 10.0 mi NW 17.3 mph 21.9 mph N/A   Mostly Cloudy
10:53 AM 78.1 °F 61.0 °F 56% 29.68 in 10.0 mi NNW 19.6 mph 32.2 mph N/A   Scattered Clouds
11:53 AM 78.1 °F 51.1 °F 39% 29.70 in 10.0 mi North 21.9 mph 29.9 mph N/A   Clear
12:53 PM 80.1 °F 30.9 °F 17% 29.69 in 10.0 mi North 19.6 mph 31.1 mph N/A   Mostly Cloudy
1:51 PM 80.6 °F 19.4 °F 10% 29.68 in 9.0 mi NNW 21.9 mph 33.4 mph N/A   Overcast
1:53 PM 79.0 °F 19.0 °F 11% 29.67 in 9.0 mi NW 21.9 mph 33.4 mph N/A   Overcast
2:53 PM 79.0 °F 17.1 °F 10% 29.69 in 9.0 mi NNW 25.3 mph 34.5 mph N/A   Overcast
3:53 PM 78.1 °F 14.0 °F 9% 29.70 in 10.0 mi NNW 21.9 mph 34.5 mph N/A   Overcast
4:23 PM 78.8 °F 12.2 °F 8% 29.71 in 10.0 mi NW 24.2 mph 38.0 mph N/A   Overcast
4:53 PM 77.0 °F 1.9 °F 5% 29.71 in 9.0 mi NW 24.2 mph 40.3 mph N/A   Overcast
5:53 PM 73.0 °F 7.0 °F 8% 29.73 in 10.0 mi NNW 17.3 mph 29.9 mph N/A   Partly Cloudy
6:53 PM 69.1 °F 12.0 °F 11% 29.78 in 10.0 mi North 12.7 mph - N/A   Clear
7:53 PM 64.9 °F 17.1 °F 16% 29.82 in 10.0 mi North 10.4 mph - N/A   Clear
8:53 PM 60.1 °F 21.9 °F 23% 29.86 in 10.0 mi ENE 4.6 mph - N/A   Clear
9:53 PM 61.0 °F 19.9 °F 21% 29.87 in 10.0 mi North 6.9 mph - N/A   Clear
10:53 PM 57.9 °F 21.9 °F 25% 29.88 in 10.0 mi North 4.6 mph - N/A   Clear
11:53 PM 55.9 °F 23.0 °F 28% 29.89 in 10.0 mi NNW 5.8 mph - N/A   Clear